ZHUHAI-1 02 (CAS-4B)

Last updated on Mon Feb 10 2025 00:02:29 GMT+0000 (Coordinated Universal Time)

1 42759U 17034B 25040.61488590 .00043505 00000+0 84072-3 0 9994 2 42759 43.0125 308.0830 0016294 179.3295 180.7588 15.46924607423925
UTC large
Height (km)
Speed (km/s)
/
Latitude / Longitude
Inclination (degrees)
Orbital Period (minutes)
Azimuth
Elevation
Range (km)
Doppler Factor

Next 0 passes for location: London (51.5072 / 0.1276)

Sorry there are no passes over London.